�������l�o���
Date,Time,MP-1(��Sv/h),MP-2(��Sv/h),MP-3(��Sv/h),MP-4(��Sv/h),MP-5(��Sv/h),MP-6(��Sv/h),MP-7(��Sv/h),MP-8(��Sv/h),����,����(m/s),���J
2016/09/18,00:00,1.184,1.832,1.360,2.002,1.380,0.597,1.054,0.964,���k��,3.1,�L
2016/09/18,00:10,1.183,1.837,1.363,2.006,1.386,0.597,1.054,0.965,���k��,2.9,��
2016/09/18,00:20,1.187,1.843,1.363,2.010,1.388,0.597,1.054,0.964,��,2.4,��
2016/09/18,00:30,1.187,1.846,1.365,2.014,1.390,0.595,1.056,0.965,���쐼,1.0,��
2016/09/18,00:40,1.188,1.850,1.366,2.015,1.390,0.594,1.055,0.964,���쐼,1.1,��
2016/09/18,00:50,1.192,1.850,1.367,2.014,1.393,0.596,1.057,0.966,���k��,2.0,��
2016/09/18,01:00,1.190,1.848,1.367,2.018,1.393,0.596,1.055,0.966,��,2.2,�L
2016/09/18,01:10,1.191,1.850,1.365,2.016,1.392,0.595,1.056,0.967,���k��,2.3,�L
2016/09/18,01:20,1.192,1.850,1.363,2.016,1.395,0.596,1.056,0.965,���k��,2.1,�L
2016/09/18,01:30,1.189,1.840,1.359,2.010,1.389,0.594,1.054,0.964,��,4.4,�L
2016/09/18,01:40,1.171,1.807,1.347,1.984,1.365,0.592,1.051,0.961,��,3.6,�L
2016/09/18,01:50,1.167,1.812,1.345,1.978,1.356,0.588,1.047,0.959,��쐼,2.9,�L
2016/09/18,02:00,1.167,1.810,1.349,1.986,1.365,0.588,1.048,0.962,��,4.4,�L
2016/09/18,02:10,1.169,1.814,1.349,1.990,1.366,0.589,1.048,0.961,��,4.2,�L
2016/09/18,02:20,1.174,1.814,1.351,1.988,1.365,0.592,1.049,0.961,��,6.1,�L
2016/09/18,02:30,1.167,1.805,1.346,1.989,1.361,0.591,1.048,0.959,���쐼,2.2,�L
2016/09/18,02:40,1.171,1.816,1.350,1.993,1.367,0.592,1.050,0.962,���k��,2.1,�L
2016/09/18,02:50,1.176,1.823,1.353,1.995,1.370,0.591,1.049,0.959,���k��,1.9,�L
2016/09/18,03:00,1.180,1.828,1.355,2.001,1.372,0.592,1.052,0.959,��,3.0,�L
2016/09/18,03:10,1.182,1.829,1.357,2.002,1.373,0.592,1.050,0.961,���쐼,2.7,�L
2016/09/18,03:20,1.180,1.834,1.358,2.001,1.370,0.592,1.050,0.962,��,1.8,�L
2016/09/18,03:30,1.182,1.833,1.356,2.003,1.374,0.592,1.052,0.961,���k��,1.4,�L
2016/09/18,03:40,1.184,1.833,1.358,2.003,1.372,0.593,1.051,0.962,�k��,1.0,��
2016/09/18,03:50,1.185,1.835,1.358,2.007,1.371,0.593,1.052,0.963,���k��,1.9,��
2016/09/18,04:00,1.187,1.840,1.360,2.008,1.377,0.594,1.053,0.962,���k��,2.6,��
2016/09/18,04:10,1.186,1.841,1.359,2.009,1.377,0.593,1.053,0.961,�k��,2.9,�L
2016/09/18,04:20,1.188,1.844,1.361,2.009,1.380,0.593,1.053,0.962,�k��,3.6,�L
2016/09/18,04:30,1.188,1.840,1.359,2.009,1.378,0.592,1.053,0.963,�k�k��,4.2,�L
2016/09/18,04:40,1.186,1.833,1.359,2.011,1.377,0.592,1.055,0.963,�k�k��,3.8,�L
2016/09/18,04:50,1.186,1.841,1.357,2.010,1.378,0.594,1.053,0.963,�k�k��,2.8,�L
2016/09/18,05:00,1.187,1.839,1.359,2.007,1.378,0.592,1.052,0.961,�k�k��,3.2,�L
2016/09/18,05:10,1.185,1.840,1.358,2.009,1.381,0.592,1.054,0.962,�k�k��,3.6,�L
2016/09/18,05:20,1.187,1.842,1.358,2.012,1.377,0.593,1.055,0.961,�k�k��,4.4,�L
2016/09/18,05:30,1.185,1.836,1.357,2.008,1.378,0.592,1.054,0.963,�k�k��,3.8,�L
2016/09/18,05:40,1.189,1.838,1.358,2.008,1.379,0.595,1.053,0.963,�k,4.1,��
2016/09/18,05:50,1.189,1.844,1.358,2.014,1.378,0.592,1.054,0.961,�k�k��,3.9,��
2016/09/18,06:00,1.189,1.844,1.360,2.011,1.379,0.593,1.056,0.962,�k�k��,3.9,��
2016/09/18,06:10,1.187,1.845,1.359,2.013,1.382,0.594,1.055,0.962,�k�k��,4.4,��
2016/09/18,06:20,1.188,1.844,1.361,2.013,1.382,0.592,1.055,0.965,�k�k��,5.0,��
2016/09/18,06:30,1.190,1.846,1.361,2.013,1.383,0.593,1.053,0.965,�k�k��,4.6,��
2016/09/18,06:40,1.191,1.845,1.361,2.014,1.382,0.594,1.052,0.963,�k�k��,2.5,�L
2016/09/18,06:50,1.190,1.843,1.359,2.016,1.384,0.593,1.056,0.964,�k�k��,1.4,�L
2016/09/18,07:00,1.192,1.847,1.361,2.018,1.385,0.592,1.057,0.965,�k,2.7,��
2016/09/18,07:10,1.190,1.846,1.363,2.015,1.381,0.593,1.055,0.966,�k�k��,1.8,�L
2016/09/18,07:20,1.189,1.849,1.358,2.012,1.385,0.593,1.058,0.965,-,CALM,��
2016/09/18,07:30,1.190,1.841,1.359,2.014,1.384,0.593,1.054,0.966,�k�k��,3.6,��
2016/09/18,07:40,1.187,1.842,1.362,2.015,1.385,0.593,1.056,0.965,�k,3.0,�L
2016/09/18,07:50,1.188,1.845,1.360,2.013,1.384,0.591,1.056,0.963,�k�k��,2.3,�L
2016/09/18,08:00,1.190,1.846,1.360,2.014,1.384,0.594,1.056,0.965,�k�k��,1.9,��
2016/09/18,08:10,1.190,1.849,1.362,2.015,1.384,0.592,1.056,0.964,�k,2.0,��
2016/09/18,08:20,1.191,1.849,1.362,2.016,1.386,0.592,1.057,0.963,�k�k��,1.6,��
2016/09/18,08:30,1.192,1.847,1.360,2.016,1.387,0.592,1.056,0.964,�k�k��,1.2,��
2016/09/18,08:40,1.193,1.851,1.361,2.016,1.390,0.592,1.057,0.962,���k��,0.6,��
2016/09/18,08:50,1.193,1.851,1.362,2.019,1.389,0.592,1.057,0.963,�k,0.7,��
2016/09/18,09:00,1.195,1.850,1.362,2.021,1.389,0.592,1.059,0.965,�k�k��,1.3,��
2016/09/18,09:10,1.194,1.853,1.362,2.021,1.388,0.592,1.059,0.966,�k�k��,1.3,��
2016/09/18,09:20,1.195,1.852,1.365,2.019,1.389,0.592,1.058,0.966,�k,1.1,�L
2016/09/18,09:30,1.195,1.850,1.362,2.019,1.389,0.593,1.058,0.965,�k�k��,1.6,�L
2016/09/18,09:40,1.191,1.849,1.362,2.018,1.389,0.592,1.059,0.962,�k�k��,1.3,�L
2016/09/18,09:50,1.190,1.845,1.360,2.018,1.384,0.594,1.055,0.962,�k�k��,1.5,�L
2016/09/18,10:00,1.189,1.847,1.361,2.017,1.386,0.593,1.056,0.962,�k�k��,1.4,�L
2016/09/18,10:10,1.189,1.838,1.358,2.015,1.382,0.591,1.053,0.962,�k�k��,3.8,�L
2016/09/18,10:20,1.183,1.829,1.352,1.999,1.366,0.590,1.043,0.956,�k,1.5,�L
2016/09/18,10:30,1.179,1.820,1.343,1.988,1.358,0.586,1.041,0.954,��,3.9,�L
2016/09/18,10:40,1.161,1.790,1.331,1.966,1.338,0.585,1.040,0.955,�k�k��,2.7,�L
2016/09/18,10:50,1.150,1.781,1.326,1.962,1.338,0.583,1.038,0.953,�k�k��,1.0,�L
2016/09/18,11:00,1.155,1.794,1.331,1.966,1.339,0.584,1.041,0.952,�k�k��,1.9,�L
2016/09/18,11:10,1.153,1.790,1.329,1.963,1.336,0.583,1.037,0.951,��,3.9,�L
2016/09/18,11:20,1.150,1.782,1.324,1.956,1.327,0.584,1.036,0.950,�k�k��,4.2,�L
2016/09/18,11:30,1.149,1.782,1.323,1.958,1.328,0.583,1.033,0.949,�k�k��,4.1,�L
2016/09/18,11:40,1.155,1.786,1.326,1.956,1.328,0.583,1.032,0.950,���쓌,4.2,�L
2016/09/18,11:50,1.151,1.779,1.323,1.950,1.320,0.582,1.032,0.949,���k��,8.6,�L
2016/09/18,12:00,1.142,1.772,1.318,1.947,1.317,0.582,1.031,0.949,�k��,11.3,�L
2016/09/18,12:10,1.144,1.776,1.319,1.948,1.317,0.583,1.035,0.948,�k,5.2,�L
2016/09/18,12:20,1.152,1.789,1.323,1.950,1.312,0.585,1.035,0.951,�k�k��,6.0,�L
2016/09/18,12:30,1.153,1.790,1.319,1.949,1.311,0.585,1.034,0.951,�k�k��,3.6,�L
2016/09/18,12:40,1.154,1.792,1.319,1.951,1.310,0.583,1.036,0.951,�k�k��,2.4,�L
2016/09/18,12:50,1.158,1.792,1.321,1.954,1.312,0.585,1.036,0.950,�k�k��,3.6,�L
2016/09/18,13:00,1.158,1.798,1.320,1.957,1.311,0.583,1.034,0.950,���쓌,0.9,�L
2016/09/18,13:10,1.162,1.804,1.326,1.964,1.316,0.585,1.037,0.951,�k�k��,0.8,��
2016/09/18,13:20,1.165,1.810,1.330,1.971,1.321,0.586,1.038,0.953,�k,1.7,��
2016/09/18,13:30,1.171,1.819,1.333,1.977,1.323,0.587,1.042,0.957,�k,1.8,��
2016/09/18,13:40,1.174,1.818,1.336,1.980,1.325,0.588,1.043,0.954,�k,1.6,��
2016/09/18,13:50,1.176,1.823,1.335,1.982,1.331,0.588,1.042,0.955,�k�k��,1.8,��
2016/09/18,14:00,1.175,1.825,1.336,1.983,1.332,0.590,1.046,0.956,�k,2.2,��
2016/09/18,14:10,1.178,1.830,1.338,1.988,1.333,0.590,1.044,0.957,�k�k��,2.4,��
2016/09/18,14:20,1.179,1.831,1.340,1.992,1.335,0.588,1.046,0.957,�k�k��,2.0,��
2016/09/18,14:30,1.180,1.831,1.341,1.992,1.336,0.590,1.047,0.959,�k,2.0,��
2016/09/18,14:40,1.179,1.833,1.343,1.994,1.336,0.589,1.048,0.958,�k�k��,2.6,��
2016/09/18,14:50,1.183,1.832,1.346,1.997,1.337,0.590,1.047,0.959,�k,2.6,��
2016/09/18,15:00,1.182,1.836,1.349,1.998,1.342,0.590,1.052,0.960,�k,3.3,��
2016/09/18,15:10,1.185,1.836,1.343,2.003,1.341,0.590,1.050,0.961,�k,3.6,��
2016/09/18,15:20,1.183,1.838,1.344,2.000,1.342,0.589,1.049,0.959,�k,3.2,��
2016/09/18,15:30,1.182,1.839,1.346,2.004,1.343,0.590,1.049,0.960,�k,3.4,��
2016/09/18,15:40,1.186,1.836,1.347,2.001,1.345,0.591,1.049,0.959,�k,4.2,��
2016/09/18,15:50,1.185,1.838,1.347,2.004,1.343,0.589,1.049,0.960,�k�k��,3.4,��
2016/09/18,16:00,1.187,1.841,1.348,2.005,1.350,0.591,1.053,0.960,�k�k��,3.9,��
2016/09/18,16:10,1.186,1.843,1.349,2.006,1.349,0.589,1.050,0.960,�k�k��,5.0,��
2016/09/18,16:20,1.189,1.843,1.349,2.007,1.353,0.590,1.051,0.961,�k�k��,6.3,��
2016/09/18,16:30,1.186,1.843,1.345,2.009,1.354,0.592,1.052,0.961,�k�k��,5.2,�L
2016/09/18,16:40,1.183,1.832,1.343,2.003,1.346,0.589,1.051,0.960,�k�k��,3.1,�L
2016/09/18,16:50,1.177,1.818,1.335,1.993,1.338,0.587,1.048,0.957,�k�k��,5.3,�L
2016/09/18,17:00,1.172,1.814,1.332,1.985,1.339,0.589,1.045,0.957,�k�k��,4.5,�L
2016/09/18,17:10,1.171,1.814,1.332,1.987,1.334,0.590,1.045,0.956,�k�k��,5.2,�L
2016/09/18,17:20,1.169,1.813,1.332,1.979,1.329,0.589,1.043,0.957,�k�k��,3.5,�L
2016/09/18,17:30,1.166,1.809,1.329,1.976,1.330,0.586,1.044,0.954,�k�k��,5.2,�L
2016/09/18,17:40,1.167,1.809,1.333,1.975,1.329,0.587,1.044,0.955,�k�k��,5.5,�L
2016/09/18,17:50,1.164,1.805,1.329,1.976,1.327,0.587,1.043,0.953,�k�k��,4.9,�L
2016/09/18,18:00,1.162,1.804,1.327,1.972,1.326,0.587,1.042,0.954,�k�k��,5.8,�L
2016/09/18,18:10,1.165,1.809,1.331,1.977,1.329,0.586,1.043,0.955,�k�k��,5.5,�L
2016/09/18,18:20,1.166,1.814,1.334,1.980,1.333,0.586,1.044,0.955,�k�k��,6.0,�L
2016/09/18,18:30,1.167,1.816,1.332,1.982,1.335,0.589,1.045,0.955,�k�k��,6.4,��
2016/09/18,18:40,1.172,1.819,1.333,1.985,1.339,0.586,1.044,0.956,�k�k��,6.4,��
2016/09/18,18:50,1.171,1.824,1.336,1.985,1.340,0.588,1.045,0.956,�k�k��,5.8,��
2016/09/18,19:00,1.174,1.826,1.335,1.991,1.336,0.587,1.046,0.958,�k�k��,5.6,��
2016/09/18,19:10,1.177,1.824,1.338,1.992,1.342,0.589,1.048,0.956,�k�k��,5.5,��
2016/09/18,19:20,1.176,1.826,1.339,1.994,1.341,0.590,1.046,0.958,�k�k��,5.5,��
2016/09/18,19:30,1.178,1.827,1.342,1.994,1.343,0.587,1.045,0.957,�k�k��,6.0,��
2016/09/18,19:40,1.177,1.828,1.341,1.999,1.345,0.589,1.047,0.959,�k�k��,6.0,��
2016/09/18,19:50,1.180,1.834,1.344,2.000,1.349,0.591,1.048,0.959,�k�k��,6.1,��
2016/09/18,20:00,1.181,1.835,1.343,2.000,1.349,0.587,1.048,0.960,�k�k��,6.0,��
2016/09/18,20:10,1.181,1.833,1.342,2.001,1.350,0.589,1.049,0.959,�k�k��,6.6,��
2016/09/18,20:20,1.181,1.833,1.343,2.001,1.349,0.588,1.049,0.960,�k�k��,5.5,��
2016/09/18,20:30,1.182,1.835,1.343,2.001,1.349,0.589,1.049,0.962,�k�k��,6.0,��
2016/09/18,20:40,1.182,1.834,1.344,2.001,1.349,0.588,1.051,0.963,�k�k��,6.3,��
2016/09/18,20:50,1.183,1.834,1.344,1.999,1.351,0.589,1.048,0.962,�k�k��,6.3,��
2016/09/18,21:00,1.186,1.837,1.343,2.003,1.354,0.589,1.050,0.963,�k��,5.2,��
2016/09/18,21:10,1.187,1.836,1.345,2.004,1.355,0.591,1.051,0.962,�k�k��,5.2,��
2016/09/18,21:20,1.186,1.837,1.344,2.005,1.357,0.590,1.053,0.961,�k��,4.9,��
2016/09/18,21:30,1.187,1.840,1.347,2.004,1.356,0.589,1.052,0.961,�k�k��,5.2,��
2016/09/18,21:40,1.185,1.841,1.346,2.005,1.357,0.592,1.053,0.962,�k��,5.0,��
2016/09/18,21:50,1.185,1.840,1.346,2.006,1.355,0.589,1.051,0.964,�k��,5.0,��
2016/09/18,22:00,1.187,1.842,1.347,2.004,1.358,0.590,1.053,0.967,�k��,6.0,��
2016/09/18,22:10,1.186,1.840,1.347,2.006,1.356,0.590,1.052,0.963,�k��,5.2,��
2016/09/18,22:20,1.188,1.844,1.348,2.006,1.360,0.590,1.052,0.966,�k��,5.3,��
2016/09/18,22:30,1.190,1.843,1.348,2.006,1.359,0.591,1.052,0.963,�k�k��,5.5,��
2016/09/18,22:40,1.187,1.841,1.349,2.007,1.360,0.589,1.053,0.964,�k�k��,5.3,��
2016/09/18,22:50,1.190,1.843,1.349,2.007,1.359,0.591,1.052,0.962,�k�k��,5.5,��
2016/09/18,23:00,1.188,1.844,1.347,2.012,1.364,0.592,1.051,0.964,�k�k��,5.2,��
2016/09/18,23:10,1.191,1.845,1.350,2.011,1.363,0.591,1.052,0.963,�k�k��,5.2,��
2016/09/18,23:20,1.192,1.845,1.350,2.011,1.364,0.590,1.054,0.965,�k�k��,7.1,��
2016/09/18,23:30,1.190,1.846,1.352,2.010,1.361,0.591,1.056,0.964,�k�k��,6.1,��
2016/09/18,23:40,1.192,1.846,1.352,2.011,1.365,0.591,1.055,0.966,�k�k��,6.3,��
2016/09/18,23:50,1.190,1.846,1.350,2.009,1.366,0.591,1.054,0.965,�k�k��,5.5,��
